Probability
1 2 2 6 8 7 6 6 7 7 7 7 5 3 2 1 1 2 2 3 4 5 5 4 4 6 6 5 4 3 3 3 2 2 2 1 0 0 0 0 0 0 0
1 2 2 4 5 5 4 5 6 7 8 7 6 5 4 3 3 3 4 5 6 6 5 4 4 6 7 6 4 4 4 4 3 3 2 1 0 0 0 0 0 0 0
2 2 3 3 3 4 4 4 5 6 7 7 7 5 4 5 5 6 7 7 8 8 6 4 5 8 9 7 5 5 6 6 5 4 1 0 0 0 0 0 0 0 0
2 3 3 3 4 4 4 3 3 4 6 7 5 2 2 4 6 6 7 8 9 8 5 4 4 6 8 7 7 7 7 7 7 5 2 1 0 0 0 0 0 0 0
1 2 2 3 4 3 4 3 2 2 4 5 3 1 2 4 4 5 6 7 7 5 3 2 2 3 4 5 7 8 8 7 7 6 3 2 1 0 0 0 0 0 0
0 1 1 2 2 2 3 4 2 1 2 3 2 2 2 2 2 2 4 6 6 4 2 0 0 0 1 2 5 7 7 7 7 6 4 2 1 0 0 0 0 0 0
0 0 0 1 1 1 2 3 2 1 1 1 2 2 2 2 1 2 2 5 7 7 4 2 1 1 2 4 5 7 8 8 7 5 4 2 1 0 0 0 0 0 0
0 0 0 0 0 0 1 2 2 2 2 2 2 3 3 2 3 3 3 4 7 7 5 3 3 3 4 5 6 6 7 7 6 5 4 3 1 1 0 0 0 0 0
0 0 0 0 0 0 0 1 1 3 3 3 3 4 4 2 2 3 3 3 5 5 4 3 2 2 3 4 5 5 4 4 5 5 4 3 3 2 1 0 0 0 0
0 0 0 0 0 0 0 0 1 2 2 2 2 3 2 1 1 2 2 2 2 4 4 3 1 1 2 3 3 2 2 2 3 4 3 3 3 3 2 1 0 0 0
0 0 0 0 0 0 0 0 0 1 1 1 1 1 1 0 0 1 1 0 1 3 4 3 3 3 3 3 1 1 1 0 1 3 3 3 3 3 3 2 0 0 0
0 0 0 0 0 0 0 0 0 0 0 0 0 0 0 0 0 0 0 0 0 1 3 3 3 4 5 4 2 0 0 0 1 3 4 4 3 3 2 1 0 0 0
0 0 0 0 0 0 0 0 0 0 0 0 0 0 0 0 0 0 0 0 0 1 2 3 3 4 5 6 4 2 0 0 1 3 5 4 3 1 1 0 0 0 0
0 0 0 0 0 0 0 0 0 0 0 0 0 0 0 0 0 0 0 0 0 1 2 3 3 4 5 6 5 3 1 1 2 4 4 4 3 1 0 0 0 0 0
0 0 0 0 0 0 0 0 0 0 0 0 0 0 0 0 0 0 0 0 0 1 3 3 4 4 4 5 5 4 3 2 3 3 3 3 2 1 0 0 0 0 0
0 0 0 0 0 0 0 0 0 0 0 0 0 0 0 0 0 0 0 1 1 2 3 3 3 3 3 4 4 3 3 3 3 3 3 2 1 0 0 0 0 0 0
0 0 0 0 0 0 0 0 0 0 0 0 0 0 0 0 0 0 0 1 2 2 2 1 2 2 2 2 2 2 2 2 2 2 1 1 0 0 0 0 0 0 0
0 0 0 0 0 0 0 0 0 0 0 0 0 0 0 0 0 0 0 1 1 1 1 0 0 1 1 1 1 1 1 1 1 1 0 0 0 0 0 0 0 0 0
0 0 0 0 0 0 0 0 0 0 0 0 0 0 0 0 0 0 0 0 0 0 0 0 0 0 0 0 0 0 0 0 0 0 0 0 0 0 0 0 0 0 0
0 0 0 0 0 0 0 0 0 0 0 0 0 0 0 0 0 0 0 0 0 0 0 0 0 0 0 0 0 0 0 0 0 0 0 0 0 0 0 0 0 0 0
0 0 0 0 0 0 0 0 0 0 0 0 0 0 0 0 0 0 0 0 0 0 0 0 0 0 0 0 0 0 0 0 0 0 0 0 0 0 0 0 0 0 0
0 0 0 0 0 0 0 0 0 0 0 0 0 0 0 0 0 0 0 0 0 0 0 0 0 0 0 0 0 0 0 0 0 0 0 0 0 0 0 0 0 0 0
0 0 0 0 0 0 0 0 0 0 0 0 0 0 0 0 0 0 0 0 0 0 0 0 0 0 0 0 0 0 0 0 0 0 0 0 0 0 0 0 0 0 0
0 0 0 0 0 0 0 0 0 0 0 0 0 0 0 0 0 0 0 0 0 0 0 0 0 0 0 0 0 0 0 0 0 0 0 0 0 0 0 0 0 0 0
0 0 0 0 0 0 0 0 0 0 0 0 0 0 0 0 0 0 0 0 0 0 0 0 0 0 0 0 0 0 0 0 0 0 0 0 0 0 0 0 0 0 0
0 0 0 0 0 0 0 0 0 0 0 0 0 0 0 0 0 0 0 0 0 0 0 0 0 0 0 0 0 0 0 0 0 0 0 0 0 0 0 0 0 0 0
Wind_Speed
3 2 3 3 3 3 4 6 6 6 5 4 4 4 5 5 5 5 6 7 7 8 7 6 6 5 5 5 5 4 4 3 2 2 1 1 2 2 2 1 1 2 2
3 2 3 3 3 4 4 5 6 6 6 5 4 4 4 4 4 4 6 6 7 8 7 7 6 6 5 6 5 5 3 3 3 3 2 1 1 1 1 1 1 1 2
4 4 4 4 3 4 4 4 6 6 6 6 4 3 2 3 4 5 5 5 7 8 7 8 7 6 6 6 6 6 5 4 3 3 3 3 3 1 1 2 2 2 2
2 3 4 4 4 4 3 4 6 6 6 6 5 6 4 4 5 4 4 5 6 7 8 8 7 7 5 6 6 5 4 5 4 3 2 2 2 2 1 1 2 2 2
1 3 3 3 4 3 3 4 5 5 5 5 6 6 5 4 4 4 5 6 5 7 7 8 7 7 5 6 7 6 6 5 5 4 3 2 2 2 3 2 1 1 1
4 3 2 2 3 3 3 3 4 5 5 5 6 6 7 7 7 6 7 6 5 5 7 7 7 7 6 6 6 6 7 5 5 4 3 3 3 3 3 3 3 2 2
4 3 2 3 2 2 3 2 3 5 5 5 5 6 7 7 8 8 7 7 5 5 8 7 6 6 6 6 5 6 6 6 6 5 4 4 3 2 3 3 2 2 1
5 4 3 2 2 1 2 1 2 4 4 5 5 5 5 5 5 6 5 6 6 6 8 8 7 7 7 6 6 4 5 5 6 6 5 3 3 3 3 3 3 2 1
7 6 5 5 3 2 1 1 1 2 3 3 3 4 5 5 5 5 4 4 5 5 8 8 7 7 7 7 6 5 5 5 5 5 5 3 2 3 2 2 3 4 3
8 6 6 5 5 4 2 0 0 1 1 1 1 2 4 4 4 4 4 4 5 6 7 7 8 8 7 7 6 5 5 5 5 4 5 4 3 3 3 2 2 2 3
8 7 6 6 5 5 4 3 2 2 1 0 1 1 2 3 3 3 3 3 3 5 7 7 8 8 8 8 7 7 7 7 6 5 6 5 4 3 3 3 2 2 2
8 7 7 7 7 6 6 5 4 3 3 2 1 1 0 1 2 2 3 3 3 4 6 7 7 7 8 8 8 8 8 8 7 7 6 6 5 5 4 3 3 2 2
8 8 8 8 7 6 6 6 6 5 4 3 2 1 1 0 1 1 2 2 3 3 4 5 6 7 7 7 7 7 7 7 7 7 7 7 7 5 4 4 3 2 2
7 8 7 7 7 6 6 6 6 6 5 4 3 2 2 1 0 1 1 2 2 3 3 4 5 5 6 6 6 6 7 6 6 6 6 6 7 6 6 5 4 4 3
8 8 8 7 8 7 7 6 6 5 5 4 3 3 2 2 1 1 1 1 2 2 3 4 4 4 4 5 6 6 7 7 7 6 5 5 7 7 5 4 5 5 3
8 8 8 8 8 7 7 6 6 6 5 4 3 3 3 2 2 0 1 2 2 2 2 3 4 4 3 7 8 7 6 7 8 7 6 6 7 8 8 7 6 5 4
7 8 8 8 7 7 7 6 5 5 5 4 4 4 3 3 2 1 1 2 2 2 2 2 3 4 5 8 9 9 6 7 7 7 6 5 6 7 6 7 6 4 4
7 7 7 7 7 6 6 6 5 5 5 4 4 4 3 3 2 1 1 1 2 2 2 2 3 4 5 8 9 9 6 5 6 6 6 7 7 6 7 6 5 4 3
5 6 6 6 6 6 6 6 6 6 5 5 4 3 3 3 2 1 1 1 2 2 2 2 4 4 5 7 8 8 5 5 5 5 5 6 7 10 11 8 6 5 3
5 6 6 6 6 6 6 6 6 6 6 6 5 3 2 2 2 1 1 1 2 2 2 3 3 4 4 7 8 7 4 5 5 4 4 6 8 11 11 7 7 6 4
5 5 5 5 6 6 6 6 6 6 6 6 5 4 3 2 1 1 1 2 2 3 3 3 2 3 4 6 7 6 4 5 5 4 4 4 10 11 10 8 6 7 6
5 5 5 5 5 5 5 6 6 7 6 5 5 4 3 2 1 1 1 1 2 3 3 3 2 2 3 4 5 5 5 5 5 4 4 5 10 10 9 6 7 9 7
4 5 5 5 5 5 5 6 6 7 6 5 4 3 3 2 1 0 1 1 2 2 2 2 2 2 2 3 6 6 7 6 3 4 7 9 11 9 6 8 9 7 4
4 4 5 5 5 5 5 5 6 6 5 5 4 3 2 2 2 1 0 1 1 1 2 2 2 2 2 2 3 3 4 5 4 4 7 9 9 6 6 6 5 3 4
3 3 4 4 5 5 5 6 6 6 6 5 4 3 2 1 1 1 1 1 1 1 2 2 3 3 3 4 6 4 3 3 4 5 4 3 3 3 3 3 3 3 3
3 3 4 5 5 5 5 5 6 6 5 4 4 3 2 1 1 1 2 3 1 1 1 0 1 1 2 4 6 6 6 7 9 5 4 4 5 5 5 5 4 4 4
Wind_Direction
214 212 189 184 191 190 189 187 172 179 172 166 162 162 183 174 166 172 176 170 169 168 163 163 164 158 158 163 164 163 165 168 150 131 158 236 211 186 182 170 141 143 137
198 202 194 189 183 196 190 185 178 179 172 175 167 165 175 174 167 170 174 175 173 170 166 163 165 163 162 169 173 164 161 172 162 155 153 196 260 230 169 142 131 135 122
192 194 186 176 169 190 192 191 184 186 180 174 159 150 163 161 169 176 178 181 179 173 168 167 166 168 168 173 176 170 170 174 179 179 168 170 199 169 178 183 162 173 159
188 177 173 168 172 181 185 197 197 190 189 175 167 165 179 189 185 180 179 182 190 179 171 168 168 172 173 176 180 173 171 171 181 190 198 176 143 148 167 205 194 179 176
99 147 159 166 164 158 173 192 190 187 191 178 172 176 189 199 181 176 176 181 191 182 173 172 170 173 176 181 181 175 177 183 185 181 174 185 181 178 167 194 199 210 219
56 76 99 128 135 145 159 178 172 187 186 178 182 187 195 196 182 181 183 182 187 184 180 178 177 175 177 184 184 181 181 187 190 185 179 172 173 187 183 189 191 196 202
46 62 68 91 111 143 148 158 170 188 183 179 189 193 199 203 195 190 190 186 187 190 185 182 182 178 181 184 179 182 182 182 185 187 190 189 189 169 164 168 185 183 178
34 46 48 69 87 103 121 132 206 200 186 185 193 198 199 206 205 203 199 194 193 193 184 182 183 183 182 182 178 179 181 178 184 186 182 178 177 166 169 161 160 174 202
25 28 29 31 24 22 94 152 216 196 183 188 196 198 197 200 204 200 202 200 192 188 182 181 183 183 181 179 175 181 182 178 179 173 168 167 166 153 154 146 157 168 189
21 22 25 24 16 9 4 43 235 218 186 191 196 208 200 198 191 193 202 203 191 186 179 181 182 180 177 176 176 173 174 172 175 167 166 168 162 154 150 155 162 161 167
14 16 19 21 18 15 11 20 10 360 26 230 195 200 193 184 174 183 194 199 196 188 181 183 183 180 178 176 177 177 172 172 173 168 167 166 155 158 160 154 158 165 155
14 14 20 19 16 14 12 17 11 12 6 358 354 323 349 180 178 186 194 189 189 190 188 180 182 182 179 177 180 178 176 175 179 175 166 167 160 164 162 163 166 165 161
17 16 18 16 13 13 14 15 12 7 3 8 2 0 5 332 188 181 184 175 172 176 179 175 179 179 177 177 180 175 174 176 177 173 171 166 163 168 162 155 155 156 150
17 17 15 11 9 14 16 13 9 4 3 7 2 360 359 359 307 199 173 167 166 170 173 172 173 173 171 175 176 169 169 170 167 161 161 158 163 166 161 159 159 154 152
17 13 10 4 3 9 11 8 4 2 3 9 9 1 5 14 28 59 149 153 160 166 167 167 163 164 166 173 172 168 165 161 153 146 144 141 140 140 145 152 156 155 159
9 5 4 3 3 1 -0 358 357 357 359 4 2 1 5 14 12 12 153 138 143 144 150 166 162 166 170 166 167 161 158 158 153 148 141 139 137 138 138 139 140 147 158
359 359 358 356 356 353 353 350 349 354 357 357 356 0 4 8 5 12 105 140 139 136 140 151 152 158 161 163 162 156 153 154 153 151 151 149 148 143 136 136 127 117 122
355 354 352 348 347 349 350 346 350 355 353 355 358 359 358 359 1 22 79 105 116 129 129 140 136 132 142 146 148 144 141 144 147 152 156 153 148 153 148 141 133 123 106
353 347 344 340 342 348 349 347 347 349 351 352 353 354 357 355 349 348 66 90 100 105 111 129 138 133 136 147 147 142 136 134 137 143 151 152 150 159 153 141 138 132 125
356 351 345 345 349 348 348 347 344 349 345 343 340 341 347 358 357 356 37 76 104 111 108 100 122 132 138 152 153 151 141 139 140 137 142 153 159 162 159 152 152 157 163
351 350 348 348 346 345 351 350 348 345 337 335 336 340 347 353 354 28 72 102 109 112 111 108 111 125 139 152 156 161 148 150 149 151 155 163 168 168 168 164 159 167 155
347 351 347 344 344 349 353 348 342 334 334 335 336 335 337 349 13 87 97 111 123 126 128 124 117 116 135 149 160 165 164 155 150 160 160 162 167 168 168 166 161 161 150
344 347 340 338 343 350 354 345 335 333 333 336 336 333 342 353 357 129 149 148 151 147 148 146 149 143 135 155 165 169 167 167 152 154 160 160 165 165 166 172 171 162 147
337 337 337 337 340 345 346 343 337 333 332 334 330 332 339 338 336 348 149 182 181 168 163 165 168 164 165 168 162 163 164 162 153 144 154 157 162 159 163 170 172 160 164
327 331 329 330 333 338 341 343 340 339 335 333 329 332 329 327 337 340 336 294 266 201 190 195 184 180 198 200 186 174 171 164 163 143 129 133 146 163 164 163 165 168 174
330 330 330 332 334 338 339 341 341 340 336 332 331 330 327 325 332 336 357 17 357 2 358 256 214 226 212 184 185 186 184 180 173 158 158 171 179 185 184 182 182 184 188